THORAD AGENA D DEB, 19948

Orbit data source: Space-Track

THORAD AGENA D DEB, 19948 is space debris in SSO originally from a launch on Wed, 08 Apr 1970 UTC launched from the Air Force Western Test Range (AFWTR). Debris objects in space refer to the collection of defunct objects orbiting the Earth. Examples of debris include non-operational satellites, rocket bodies, and fragments generated from explosions, collisions, or faulty payload assembly.

Loading next visibility...
Identifier
19948, 1970-025QD
Orbit
SSO
Country
Flag of USUS
Related business
Manufacturer
Unknown
Mission
Spacecraft
Bus & Motor
Unknown
Mass
Unknown
Launch date (UTC)
1970-04-08 (56 years ago)
Launch vehicle
Unknown
Launch site
Air Force Western Test Range (AFWTR)
Object type
Payload
Rocket body
Debris
Shape & HBR
Unknown shape, 0.1 m
Radar Cross Section
Small (<0.1 m²)

Expand to show TLE details & history
Last TLE update: 1 day ago

TLE from 1 day ago
0 THORAD AGENA D DEB
1 19948U 70025QD  25352.42326712  .00000070  00000-0  33843-3 0  9990
2 19948  99.5901 213.1980 0412116  88.5655  33.4291 12.74795928616483
Epoch: 2025-12-18T10:09Z
TLE epoch observation values (Epoch: 2025-12-18T10:09:30.279Z)
Latitude
54.24664°
Longitude
167.04378°
Altitude
1,109.199 km
Speed
7.426 km/s
True Right ascension
03h 06m 47s
True Declination
54° 05' 28"
Sunlit
Object was in full shadow at epoch
Visualization orbit readout
Latitude
Unknown
Longitude
Unknown
Altitude
Unknown
Speed
Unknown
Apparent Right ascension
Unknown
Apparent Declination
Unknown
Sunlit
N/A
Visualization observer readout
Local Sidereal Time
14:18:48
Azimuth
Unknown
Elevation
Unknown
Doppler factor
Unknown
Orbital elements
Apogee altitude
1,678.751 km
Perigee altitude
1,040.961 km
Semi-major axis
7,737.993 km
Eccentricity
0.04121
Inclination
99.5901°
RAAN
213.198°
Arg. of periapsis
88.5655°
True anomaly
36.14638°
Mean anomaly
33.4291°
Eccentric anomaly
34.77588°
Mean motion
3.1886 °/min
Orbital period
112.9 mins
BSTAR
0.00033843
Loading maneuver chart data...
Computing Atmospheric mass density...

Documentation

Showing up to 5 results
|